Location: Dugenta
(41.1333°N, 14.4500°E)
Time: 10:41:04
(UTC+00:00)

Cosmos 2237 - Pass Details

Date: 03 March 2021
Orbit: 845 x 856 km, 70.8° (Epoch: 20 April)

Event Time Altitude Azimuth Distance (km) Brightness Sun altitude
Rises 18:05:15 0° 205° (SSW) 3,404 7.7 -13.9°
Reaches altitude 10° 18:07:41 10° 207° (SSW) 2,474 6.9 -14.4°
Maximum altitude 18:13:23 80° 294° (WNW) 872 4.3 -15.5°
Drops below altitude 10° 18:19:08 10° 22° (NNE) 2,496 6.5 -16.5°
Sets 18:21:37 0° 23° (NNE) 3,436 7.2 -17.0°
